Weather History for Truckee-Tahoe, CA

Change the Weather History Date:

Sunday, October 20, 2013

  Actual Average Record
Temperature  
Mean Temperature 46 °F -  
Max Temperature 68 °F 63 °F 78 °F (1988)
Min Temperature 23 °F 27 °F 16 °F (1949)
Degree Days  
Heating Degree Days 20    
Moisture  
Dew Point 19 °F    
Average Humidity 52    
Maximum Humidity 86    
Minimum Humidity 12    
Precipitation  
Precipitation 0.00 in - - ()
Sea Level Pressure  
Sea Level Pressure 30.23 in    
Wind  
Wind Speed 1 mph (SE)    
Max Wind Speed 9 mph    
Max Gust Speed -    
Visibility 10 miles    
Events      
Averages and records for this station are not official NWS values.
T = Trace of Precipitation, MM = Missing Value Source: NWS Daily Summary

Daily Weather History Graph

Daily Weather History Graph

Search for Another Location

Airport:

Trip Planner

Search our weather history database for the weather conditions in past years. The results will help you decide how hot, cold, wet, or windy it might be!

Date:

Astronomy

Oct. 20, 2013 Rise Set
Actual Time 7:15 AM PDT 6:14 PM PDT
Civil Twilight 6:48 AM PDT 6:41 PM PDT
Nautical Twilight 6:17 AM PDT 7:12 PM PDT
Astronomical Twilight 5:46 AM PDT 7:43 PM PDT
Moon 7:27 PM PDT (10/20) 8:57 AM PDT (10/20)
Length of Visible Light 11h 52m
Length of Day
10h 58m
Waning Gibbous, 97% of the Moon is Illuminated
Oct 20
Waning Gibbous
Oct 26
Last Quarter
Nov 3
New
Nov 9
First Quarter
Nov 17
Full

Hourly Weather History & Observations

Time (PDT) Temp. Windchill Dew Point Humidity Pressure Visibility Wind Dir Wind Speed Gust Speed Precip Events Conditions
12:15 AM 32.0 °F - 21.2 °F 64% 30.29 in 10.0 mi Calm Calm - N/A   Clear
12:35 AM 32.0 °F - 21.2 °F 64% 30.29 in 10.0 mi Calm Calm - N/A   Clear
12:55 AM 32.0 °F - 21.2 °F 64% 30.28 in 10.0 mi Calm Calm - N/A   Clear
1:15 AM 32.0 °F - 19.4 °F 60% 30.29 in 10.0 mi Calm Calm - N/A   Clear
1:35 AM 28.4 °F - 21.2 °F 74% 30.28 in 10.0 mi Calm Calm - N/A   Clear
1:55 AM 30.2 °F - 23.0 °F 75% 30.28 in 10.0 mi Calm Calm - N/A   Clear
2:15 AM 28.4 °F - 21.2 °F 74% 30.28 in 10.0 mi Calm Calm - N/A   Clear
2:35 AM 30.2 °F - 21.2 °F 69% 30.28 in 10.0 mi Calm Calm - N/A   Clear
2:55 AM 26.6 °F 22.6 °F 19.4 °F 74% 30.28 in 10.0 mi SW 3.5 mph - N/A   Clear
3:15 AM 26.6 °F - 19.4 °F 74% 30.27 in 10.0 mi Calm Calm - N/A   Clear
3:35 AM 28.4 °F - 21.2 °F 74% 30.27 in 10.0 mi Calm Calm - N/A   Clear
3:55 AM 23.0 °F - 17.6 °F 80% 30.26 in 10.0 mi Calm Calm - N/A   Clear
4:15 AM 26.6 °F - 19.4 °F 74% 30.26 in 10.0 mi Calm Calm - N/A   Clear
4:35 AM 24.8 °F 20.5 °F 19.4 °F 80% 30.26 in 10.0 mi SSW 3.5 mph - N/A   Clear
4:55 AM 24.8 °F - 21.2 °F 86% 30.26 in 10.0 mi Calm Calm - N/A   Clear
5:15 AM 24.8 °F - 19.4 °F 80% 30.26 in 10.0 mi Calm Calm - N/A   Clear
5:35 AM 23.0 °F - 19.4 °F 86% 30.26 in 10.0 mi Calm Calm - N/A   Clear
5:55 AM 24.8 °F - 19.4 °F 80% 30.26 in 10.0 mi Calm Calm - N/A   Clear
6:15 AM 23.0 °F - 19.4 °F 86% 30.26 in 10.0 mi Calm Calm - N/A   Clear
6:35 AM 24.8 °F - 21.2 °F 86% 30.26 in 10.0 mi Calm Calm - N/A   Clear
6:55 AM 23.0 °F - 19.4 °F 86% 30.26 in 10.0 mi Calm Calm - N/A   Clear
7:45 AM 24.8 °F - 19.4 °F 80% 30.27 in 10.0 mi Calm Calm - N/A   Clear
8:50 AM 32.0 °F - 23.0 °F 69% 30.27 in 10.0 mi Calm Calm - N/A   Clear
9:45 AM 39.2 °F - 23.0 °F 52% 30.27 in 10.0 mi Calm Calm - N/A   Clear
10:45 AM 48.2 °F - 23.0 °F 37% 30.25 in 10.0 mi NW 3.5 mph - N/A   Clear
11:55 AM 59.0 °F - 19.4 °F 22% 30.23 in 10.0 mi North 3.5 mph - N/A   Clear
12:50 PM 64.4 °F - 21.2 °F 19% 30.21 in 10.0 mi ENE 3.5 mph - N/A   Clear
1:45 PM 68.0 °F - 15.8 °F 13% 30.18 in 10.0 mi East 3.5 mph - N/A   Clear
2:50 PM 68.0 °F - 12.2 °F 12% 30.16 in 10.0 mi Calm Calm - N/A   Clear
3:50 PM 68.0 °F - 14.0 °F 12% 30.16 in 10.0 mi East 4.6 mph - N/A   Clear
4:45 PM 68.0 °F - 17.6 °F 15% 30.15 in 10.0 mi NNE 9.2 mph - N/A   Clear
5:45 PM 64.4 °F - 15.8 °F 15% 30.15 in 10.0 mi NE 6.9 mph - N/A   Clear
5:55 PM 62.6 °F - 15.8 °F 16% 30.16 in 10.0 mi NE 5.8 mph - N/A   Clear
6:15 PM 62.6 °F - 15.8 °F 16% 30.16 in 10.0 mi North 3.5 mph - N/A   Clear
6:35 PM 53.6 °F - 15.8 °F 22% 30.17 in 10.0 mi Calm Calm - N/A   Clear
6:55 PM 48.2 °F - 15.8 °F 27% 30.17 in 10.0 mi WSW 3.5 mph - N/A   Clear
7:15 PM 46.4 °F 44.3 °F 17.6 °F 32% 30.18 in 10.0 mi SSE 4.6 mph - N/A   Clear
7:35 PM 44.6 °F 42.2 °F 17.6 °F 34% 30.18 in 10.0 mi SSE 4.6 mph - N/A   Clear
7:55 PM 46.4 °F 45.2 °F 17.6 °F 32% 30.19 in 10.0 mi SSE 3.5 mph - N/A   Clear
8:15 PM 44.6 °F - 17.6 °F 34% 30.19 in 10.0 mi Calm Calm - N/A   Clear
8:35 PM 42.8 °F 41.1 °F 17.6 °F 36% 30.20 in 10.0 mi SSE 3.5 mph - N/A   Clear
8:55 PM 41.0 °F 39.0 °F 17.6 °F 39% 30.20 in 10.0 mi South 3.5 mph - N/A   Clear
9:15 PM 41.0 °F 38.0 °F 17.6 °F 39% 30.21 in 10.0 mi South 4.6 mph - N/A   Clear
9:35 PM 37.4 °F 33.8 °F 15.8 °F 41% 30.21 in 10.0 mi South 4.6 mph - N/A   Clear
9:55 PM 37.4 °F - 17.6 °F 45% 30.21 in 10.0 mi Calm Calm - N/A   Clear
10:15 PM 35.6 °F 31.7 °F 15.8 °F 44% 30.21 in 10.0 mi SSW 4.6 mph - N/A   Clear
10:35 PM 32.0 °F - 15.8 °F 51% 30.22 in 10.0 mi Calm Calm - N/A   Clear
10:55 PM 37.4 °F - 15.8 °F 41% 30.22 in 10.0 mi Calm Calm - N/A   Clear
11:15 PM 33.8 °F - 15.8 °F 48% 30.23 in 10.0 mi Calm Calm - N/A   Clear
11:35 PM 33.8 °F - 15.8 °F 48% 30.23 in 10.0 mi Calm Calm - N/A   Clear
11:55 PM 30.2 °F - 15.8 °F 55% 30.23 in 10.0 mi Calm Calm - N/A   Clear